,

(GMT )
Al Udeid

Weather History for KQIR - March, 2014

Change the Weather History Date:

Sunday, March 16, 2014

  Actual Average Record
Temperature  
Mean Temperature 68 °F -  
Max Temperature 73 °F - - ()
Min Temperature 61 °F - - ()
Cooling Degree Days 2    
Growing Degree Days 18 (Base 50)    
Moisture  
Dew Point 45 °F    
Average Humidity 47    
Maximum Humidity 73    
Minimum Humidity 32    
Precipitation  
Precipitation 0.00 in - - ()
Sea Level Pressure  
Sea Level Pressure 30.12 in    
Wind  
Wind Speed 11 mph ()    
Max Wind Speed 21 mph    
Max Gust Speed 28 mph    
Visibility 4.3 miles    
Events      
Averages and records for this station are not official NWS values.
T = Trace of Precipitation, MM = Missing Value Source: Averaged Metar Reports

Daily Weather History Graph

Daily Weather History Graph

Search for Another Location

Airport or City:

Trip Planner

Search our weather history database for the weather conditions in past years. The results will help you decide how hot, cold, wet, or windy it might be!

Date:

Astronomy

Mar. 16, 2014 Rise Set
Actual Time 5:43 AM +03 5:43 PM +03
Civil Twilight 5:20 AM +03 6:06 PM +03
Nautical Twilight 4:53 AM +03 6:33 PM +03
Astronomical Twilight 4:27 AM +03 7:00 PM +03
Moon 5:35 PM +03 (3/16) 5:14 AM +03 (3/16)
Length of Visible Light 12h 46m
Length of Day
12h 00m
Full, 100% of the Moon is Illuminated
Mar 16
Full
Mar 16
Full
Mar 24
Last Quarter
Mar 30
New
Apr 7
First Quarter

Hourly Weather History & Observations

Time (+03) Temp. Dew Point Humidity Pressure Visibility Wind Dir Wind Speed Gust Speed Precip Events Conditions
12:58 AM 64.0 °F 55.4 °F 73% 30.06 in 5.6 mi WNW 4.6 mph - N/A   Clear
1:11 AM 64.4 °F 55.4 °F 73% 30.05 in 3.7 mi WNW 5.8 mph - N/A   Partly Cloudy
1:21 AM 64.4 °F 53.6 °F 68% 30.05 in 3.1 mi WNW 6.9 mph - N/A   Mostly Cloudy
1:36 AM 64.4 °F 50.0 °F 59% 30.05 in - NW 8.1 mph - N/A   Overcast
1:58 AM 66.0 °F 41.5 °F 41% 30.05 in 1.7 mi NW 11.5 mph - N/A   Overcast
2:14 AM 66.2 °F 39.2 °F 37% 30.04 in 1.5 mi NW 17.3 mph - N/A   Widespread Dust
2:34 AM 66.2 °F 39.2 °F 37% 30.05 in 1.2 mi NNW 19.6 mph - N/A   Widespread Dust
2:58 AM 66.4 °F 40.3 °F 38% 30.06 in 1.2 mi NW 16.1 mph - N/A   Widespread Dust
3:20 AM 66.2 °F 39.2 °F 37% 30.05 in 0.7 mi NW 19.6 mph - N/A   Widespread Dust
3:56 AM 64.4 °F 39.2 °F 40% 30.05 in 1.2 mi NW 19.6 mph - N/A   Widespread Dust
3:58 AM 65.1 °F 39.9 °F 40% 30.07 in 1.2 mi NW 18.4 mph 27.6 mph N/A   Widespread Dust
4:58 AM 63.5 °F 42.1 °F 46% 30.08 in 1.7 mi NW 17.3 mph - N/A   Widespread Dust
5:30 AM 62.6 °F 42.8 °F 48% 30.09 in 1.5 mi NW 12.7 mph - N/A   Scattered Clouds
5:58 AM 62.4 °F 44.2 °F 51% 30.12 in 1.5 mi NW 13.8 mph - N/A   Clear
6:58 AM 62.4 °F 45.0 °F 53% 30.14 in - NW 15.0 mph - N/A   Clear
7:08 AM 62.6 °F 46.4 °F 55% 30.13 in 2.5 mi NW 16.1 mph - N/A   Clear
7:16 AM 62.6 °F 46.4 °F 55% 30.14 in 3.1 mi NW 15.0 mph - N/A   Clear
7:58 AM 64.2 °F 46.4 °F 52% 30.17 in 6.2 mi NW 20.7 mph 25.3 mph N/A   Clear
8:58 AM 65.8 °F 46.9 °F 50% 30.19 in 6.2 mi NW 16.1 mph - N/A   Clear
9:58 AM 67.8 °F 46.8 °F 47% 30.19 in 6.2 mi North 15.0 mph - N/A   Clear
10:58 AM 70.2 °F 46.9 °F 43% 30.18 in 6.2 mi NNW 18.4 mph 26.5 mph N/A   Haze
11:58 AM 71.8 °F 46.0 °F 40% 30.17 in 6.2 mi NW 12.7 mph 24.2 mph N/A   Clear
12:58 PM 72.5 °F 45.3 °F 38% 30.15 in 6.2 mi NW 16.1 mph 23.0 mph N/A   Clear
1:58 PM 73.0 °F 44.4 °F 36% 30.14 in 6.2 mi NNW 15.0 mph 20.7 mph N/A   Clear
2:58 PM 72.9 °F 44.8 °F 37% 30.13 in 6.2 mi NNW 16.1 mph 21.9 mph N/A   Clear
3:58 PM 72.7 °F 41.0 °F 32% 30.14 in 5.6 mi NW 18.4 mph 24.2 mph N/A   Haze
4:58 PM 71.4 °F 41.2 °F 33% 30.15 in 6.2 mi NNW 13.8 mph - N/A   Clear
5:58 PM 70.2 °F 41.0 °F 35% 30.16 in 6.2 mi NNW 12.7 mph - N/A   Clear
6:58 PM 68.4 °F 43.3 °F 40% 30.17 in 6.2 mi NNW 8.1 mph - N/A   Clear
7:58 PM 67.6 °F 46.6 °F 47% 30.19 in 6.2 mi North 12.7 mph - N/A   Clear
8:58 PM 65.8 °F 46.9 °F 50% 30.20 in 6.2 mi North 9.2 mph - N/A   Clear
9:58 PM 63.9 °F 47.7 °F 56% 30.20 in 6.2 mi North 8.1 mph - N/A   Clear
10:58 PM 62.8 °F 48.0 °F 59% 30.19 in 6.2 mi NW 5.8 mph - N/A   Clear
11:58 PM 61.5 °F 48.0 °F 61% 30.19 in 6.2 mi NW 6.9 mph - N/A   Clear